Vancouver, WA
on Wednesday, January 16, 2013

Wednesday
Previous Day Next Day
Daily Summary
 ActualAverageRecord
Temperature
Mean Temperature °F 42°F  
Max Temperature 36°F 48°F 59°F (2011)
Min Temperature 33°F 36°F 15°F (1950)
Degree Days
Heating Degree Days 30    
Month to date heating degree days 465  
Since 1 July heating degree days 2013  
Cooling Degree Days 0    
Month to date cooling degree days 0  
Year to date cooling degree days 0  
Moisture
Dew Point 32°F   
Average Humidity 89    
Maximum Humidity 96    
Minimum Humidity 82    
Precipitation
Precipitation 0.00 in 0.17 in 1.83 in (1974)
Month to date precipitation 1.00 3.06  
Year to date precipitation 1.00 3.06  
Snow
Snow 0.00 in in in ()
Month to date snowfall 0.0  
Snow Depth 0.00 in   
Wind
Wind Speed 1 mph   
Max Wind Speed 6 mph   
Max Gust Speed 7 mph   
Visibility 7 miles   
Events     

Key: T is trace of precipitation, MM is missing value
Source: NWS Daily Summary
Time(PST)TemperatureDew PointHumidity Pressure Visibility Wind DirectionWind SpeedGust SpeedPrecipitationEvents Conditions
12:53 AM 36.0°F 32.0°F 86% 30.66 in 10.0 miles Calm Calm - N/A   Overcast
1:20 AM 35.6°F 32.0°F 87% 30.66 in 10.0 miles Calm Calm - N/A   Overcast
1:53 AM 36.0°F 32.0°F 86% 30.67 in 10.0 miles Calm Calm - N/A   Overcast
2:53 AM 36.0°F 32.0°F 86% 30.67 in 9.0 miles Calm Calm - N/A   Overcast
4:53 AM 35.1°F 32.0°F 89% 30.65 in 8.0 miles Calm Calm - N/A   Overcast
5:53 AM 35.1°F 32.0°F 89% 30.64 in 7.0 miles WNW 3.5 mph - N/A   Overcast
6:53 AM 34.0°F 32.0°F 92% 30.65 in 6.0 miles WNW 3.5 mph - N/A   Overcast
7:53 AM 34.0°F 32.0°F 92% 30.65 in 6.0 miles Calm Calm - N/A   Overcast
8:53 AM 35.1°F 32.0°F 89% 30.65 in 5.0 miles Calm Calm - N/A   Overcast
9:53 AM 34.0°F 30.9°F 89% 30.64 in 6.0 miles Calm Calm - N/A   Overcast
10:53 AM 35.1°F 30.9°F 85% 30.63 in 7.0 miles Calm Calm - N/A   Overcast
11:53 AM 36.0°F 32.0°F 86% 30.61 in 7.0 miles WNW 3.5 mph - N/A   Overcast
12:53 PM 35.1°F 32.0°F 89% 30.59 in 6.0 miles Calm Calm - N/A   Overcast
1:53 PM 35.1°F 32.0°F 89% 30.58 in 6.0 miles WSW 3.5 mph - N/A   Overcast
2:53 PM 35.1°F 32.0°F 89% 30.57 in 7.0 miles West 4.6 mph - N/A   Overcast
3:53 PM 35.1°F 32.0°F 89% 30.56 in 6.0 miles West 3.5 mph - N/A   Overcast
4:53 PM 35.1°F 32.0°F 89% 30.55 in 7.0 miles WNW 4.6 mph - N/A   Overcast
5:53 PM 35.1°F 32.0°F 89% 30.54 in 7.0 miles Calm Calm - N/A   Overcast
6:53 PM 35.1°F 32.0°F 89% 30.55 in 7.0 miles NNW 3.5 mph - N/A   Overcast
7:53 PM 34.0°F 32.0°F 92% 30.55 in 7.0 miles Calm Calm - N/A   Overcast
8:53 PM 34.0°F 32.0°F 92% 30.54 in 6.0 miles Calm Calm - N/A   Overcast
9:53 PM 33.1°F 32.0°F 96% 30.54 in 2.5 miles Calm Calm - N/A   Overcast
10:30 PM 33.8°F 32.0°F 93% 30.53 in 4.0 miles Calm Calm - N/A   Overcast
10:53 PM 33.1°F 32.0°F 96% 30.53 in 4.0 miles Calm Calm - N/A   Overcast
11:53 PM 33.1°F 32.0°F 96% 30.52 in 6.0 miles Calm Calm - N/A   Overcast
Moon Phase
Jan. 16 Jan. 18 Jan. 26 Feb. 03 Feb. 10
Sunrise:07:46 AM (PST) Moon Rise:10:06 AM (PST)1/16
Sunset:04:55 PM (PST) Moon Set:11:13 PM (PST)1/16

Copyright © 2014 The Weather Underground, Inc.